When you browse on this site, cookies collect data to enhance your experience and personalize the content and advertising you see.
Visit our Privacy Policy to learn more. By continuing to use the site, you agree to this use of cookies and data.
EN

Hourly Weather Mangush

Today, 6 July, Monday

Time Temperature Precipitation Wind Pressure Humidity
00:00 +27°C° 0 mm 2 mps 749 mmHg 55%
01:00 +26°C° 0 mm 2 mps 749 mmHg 56%
02:00 +26°C° 0 mm 2 mps 748 mmHg 55%
03:00 +26°C° 0 mm 2 mps 748 mmHg 56%
04:00 +27°C° 0 mm 2 mps 748 mmHg 58%
05:00 +27°C° 0 mm 2 mps 748 mmHg 59%
06:00 +29°C° 0 mm 3 mps 749 mmHg 54%
07:00 +31°C° 0 mm 3 mps 749 mmHg 49%
08:00 +34°C° 0 mm 3 mps 748 mmHg 44%
09:00 +35°C° 0 mm 3 mps 748 mmHg 40%
10:00 +36°C° 0 mm 3 mps 748 mmHg 35%
11:00 +38°C° 0 mm 3 mps 748 mmHg 31%
12:00 +38°C° 0 mm 3 mps 748 mmHg 30%
13:00 +38°C° 0 mm 3 mps 748 mmHg 28%
14:00 +39°C° 0 mm 3 mps 747 mmHg 26%
15:00 +38°C° 0 mm 2 mps 747 mmHg 27%
16:00 +38°C° 0 mm 2 mps 747 mmHg 29%
17:00 +37°C° 0 mm 2 mps 747 mmHg 30%
18:00 +35°C° 0 mm 2 mps 747 mmHg 33%
19:00 +32°C° 0 mm 2 mps 747 mmHg 35%
20:00 +30°C° 0 mm 2 mps 747 mmHg 38%
21:00 +29°C° 0.4 mm 2 mps 747 mmHg 42%
22:00 +28°C° 0.4 mm 2 mps 746 mmHg 46%
23:00 +27°C° 0.4 mm 2 mps 746 mmHg 50%

Tomorrow, 7 July, Tuesday

Time Temperature Precipitation Wind Pressure Humidity
00:00 +27°C° 0.1 mm 2 mps 746 mmHg 49%
01:00 +27°C° 0.1 mm 3 mps 746 mmHg 48%
02:00 +26°C° 0.1 mm 3 mps 746 mmHg 47%
03:00 +26°C° 0 mm 3 mps 746 mmHg 46%
04:00 +26°C° 0 mm 3 mps 745 mmHg 45%
05:00 +26°C° 0 mm 3 mps 745 mmHg 45%
06:00 +28°C° 0 mm 3 mps 745 mmHg 42%
07:00 +30°C° 0 mm 3 mps 745 mmHg 38%
08:00 +32°C° 0 mm 2 mps 746 mmHg 35%
09:00 +34°C° 0 mm 3 mps 746 mmHg 33%
10:00 +35°C° 0 mm 3 mps 745 mmHg 32%
11:00 +36°C° 0 mm 4 mps 745 mmHg 30%
12:00 +36°C° 0 mm 3 mps 745 mmHg 30%
13:00 +37°C° 0 mm 3 mps 745 mmHg 30%
14:00 +37°C° 0 mm 3 mps 745 mmHg 30%
15:00 +36°C° 0 mm 3 mps 745 mmHg 32%
16:00 +36°C° 0 mm 3 mps 745 mmHg 35%
17:00 +35°C° 0 mm 3 mps 745 mmHg 37%
18:00 +32°C° 0.2 mm 2 mps 745 mmHg 41%
19:00 +30°C° 0.2 mm 2 mps 745 mmHg 46%
20:00 +28°C° 0.2 mm 1 mps 745 mmHg 51%
21:00 +28°C° 0.6 mm 2 mps 745 mmHg 54%
22:00 +27°C° 0.6 mm 4 mps 745 mmHg 58%
23:00 +26°C° 0.6 mm 5 mps 745 mmHg 61%

Day after tomorrow, 8 July, Wednesday

Time Temperature Precipitation Wind Pressure Humidity
00:00 +26°C° 0.1 mm 5 mps 745 mmHg 61%
01:00 +26°C° 0.1 mm 4 mps 746 mmHg 61%
02:00 +26°C° 0.1 mm 4 mps 746 mmHg 61%
03:00 +25°C° 0.3 mm 3 mps 746 mmHg 64%
04:00 +25°C° 0.3 mm 3 mps 746 mmHg 67%
05:00 +25°C° 0.3 mm 2 mps 746 mmHg 70%
06:00 +26°C° 0.3 mm 2 mps 746 mmHg 66%
07:00 +27°C° 0.3 mm 2 mps 747 mmHg 62%
08:00 +28°C° 0.3 mm 1 mps 747 mmHg 58%
09:00 +29°C° 0 mm 2 mps 747 mmHg 56%
10:00 +30°C° 0 mm 3 mps 748 mmHg 54%
11:00 +32°C° 0 mm 4 mps 748 mmHg 51%
12:00 +33°C° 0 mm 4 mps 748 mmHg 52%
13:00 +33°C° 0 mm 5 mps 748 mmHg 52%
14:00 +33°C° 0 mm 5 mps 749 mmHg 53%
15:00 +30°C° 0.3 mm 6 mps 749 mmHg 57%
16:00 +28°C° 0.3 mm 7 mps 749 mmHg 62%
17:00 +27°C° 0.3 mm 8 mps 750 mmHg 66%
18:00 +24°C° 0 mm 8 mps 750 mmHg 70%
19:00 +22°C° 0 mm 7 mps 751 mmHg 73%
20:00 +21°C° 0 mm 7 mps 751 mmHg 76%
21:00 +20°C° 0 mm 7 mps 752 mmHg 76%
22:00 +18°C° 0 mm 7 mps 752 mmHg 76%
23:00 +17°C° 0 mm 7 mps 752 mmHg 76%

9 July, Thursday

Time Temperature Precipitation Wind Pressure Humidity
00:00 +17°C° 0 mm 7 mps 752 mmHg 77%
01:00 +17°C° 0 mm 6 mps 753 mmHg 78%
02:00 +17°C° 0 mm 6 mps 753 mmHg 78%
03:00 +16°C° 0 mm 6 mps 753 mmHg 77%
04:00 +16°C° 0 mm 6 mps 754 mmHg 76%
05:00 +16°C° 0 mm 6 mps 754 mmHg 75%
06:00 +17°C° 0 mm 6 mps 754 mmHg 70%
07:00 +20°C° 0 mm 6 mps 754 mmHg 65%
08:00 +21°C° 0 mm 7 mps 755 mmHg 60%
09:00 +23°C° 0 mm 6 mps 755 mmHg 55%
10:00 +24°C° 0 mm 6 mps 755 mmHg 51%
11:00 +26°C° 0 mm 6 mps 755 mmHg 47%
12:00 +27°C° 0 mm 6 mps 755 mmHg 45%
13:00 +27°C° 0 mm 6 mps 755 mmHg 42%
14:00 +28°C° 0 mm 6 mps 755 mmHg 39%
15:00 +27°C° 0 mm 6 mps 755 mmHg 40%
16:00 +27°C° 0 mm 6 mps 755 mmHg 41%
17:00 +27°C° 0 mm 6 mps 756 mmHg 42%
18:00 +25°C° 0 mm 5 mps 756 mmHg 48%
19:00 +22°C° 0 mm 5 mps 756 mmHg 55%
20:00 +21°C° 0 mm 4 mps 757 mmHg 62%
21:00 +20°C° 0 mm 4 mps 757 mmHg 64%
22:00 +20°C° 0 mm 4 mps 757 mmHg 66%
23:00 +19°C° 0 mm 4 mps 757 mmHg 68%

10 July, Friday

Time Temperature Precipitation Wind Pressure Humidity
00:00 +19°C° 0 mm 4 mps 758 mmHg 71%
01:00 +18°C° 0 mm 4 mps 758 mmHg 74%
02:00 +18°C° 0 mm 4 mps 758 mmHg 77%
03:00 +18°C° 0 mm 4 mps 758 mmHg 78%
04:00 +18°C° 0 mm 4 mps 758 mmHg 78%
05:00 +18°C° 0 mm 4 mps 758 mmHg 79%
06:00 +20°C° 0 mm 4 mps 759 mmHg 72%
07:00 +22°C° 0 mm 3 mps 759 mmHg 64%
08:00 +25°C° 0 mm 3 mps 759 mmHg 57%
09:00 +26°C° 0 mm 3 mps 759 mmHg 53%
10:00 +27°C° 0 mm 3 mps 759 mmHg 48%
11:00 +28°C° 0 mm 2 mps 759 mmHg 43%
12:00 +28°C° 0 mm 2 mps 758 mmHg 41%
13:00 +29°C° 0 mm 2 mps 758 mmHg 39%
14:00 +29°C° 0 mm 2 mps 758 mmHg 37%
15:00 +29°C° 0 mm 2 mps 758 mmHg 37%
16:00 +29°C° 0 mm 3 mps 758 mmHg 37%
17:00 +28°C° 0 mm 3 mps 758 mmHg 37%
18:00 +26°C° 0 mm 3 mps 758 mmHg 42%
19:00 +25°C° 0 mm 3 mps 758 mmHg 47%
20:00 +22°C° 0 mm 3 mps 758 mmHg 52%
21:00 +21°C° 0 mm 4 mps 758 mmHg 54%
22:00 +20°C° 0 mm 4 mps 758 mmHg 56%
23:00 +20°C° 0 mm 5 mps 758 mmHg 57%

11 July, Saturday

Time Temperature Precipitation Wind Pressure Humidity
00:00 +19°C° 0 mm 5 mps 758 mmHg 60%
01:00 +19°C° 0 mm 5 mps 758 mmHg 62%
02:00 +17°C° 0 mm 5 mps 758 mmHg 65%
03:00 +17°C° 0 mm 5 mps 758 mmHg 67%
04:00 +17°C° 0 mm 5 mps 758 mmHg 69%
05:00 +17°C° 0 mm 5 mps 758 mmHg 71%
06:00 +20°C° 0 mm 6 mps 758 mmHg 65%
07:00 +22°C° 0 mm 6 mps 758 mmHg 60%
08:00 +24°C° 0 mm 6 mps 758 mmHg 54%
09:00 +26°C° 0 mm 6 mps 758 mmHg 50%
10:00 +28°C° 0 mm 6 mps 758 mmHg 45%
11:00 +29°C° 0 mm 6 mps 758 mmHg 40%
12:00 +30°C° 0 mm 6 mps 757 mmHg 38%
13:00 +30°C° 0 mm 5 mps 757 mmHg 37%
14:00 +32°C° 0 mm 5 mps 757 mmHg 35%
15:00 +30°C° 0 mm 5 mps 756 mmHg 36%
16:00 +30°C° 0 mm 4 mps 756 mmHg 37%
17:00 +30°C° 0 mm 4 mps 756 mmHg 37%
18:00 +28°C° 0 mm 4 mps 756 mmHg 43%
19:00 +26°C° 0 mm 3 mps 756 mmHg 48%
20:00 +24°C° 0 mm 3 mps 756 mmHg 54%
21:00 +22°C° 0 mm 4 mps 756 mmHg 54%
22:00 +22°C° 0 mm 4 mps 755 mmHg 55%
23:00 +21°C° 0 mm 5 mps 755 mmHg 56%
Show more